Tracking 26894 objects as of 2-Feb-2023
HD Live streaming from Space Station
objects crossing your sky now

NOAA 17 DEB

Track NOAA 17 DEB now!
10-day predictions


NORAD ID: 49491
Int'l Code: 2002-032DV
Perigee: 675.1 km
Apogee: 782.2 km
Inclination: 98.7 °
Period: 99.2 minutes
Semi major axis: 7099 km
RCS: Unknown
Launch date: June 24, 2002
Source: United States (US)
Launch site: AIR FORCE WESTERN TEST RANGE (AFWTR)

Note: This is SATELLITE DEBRIS
Your satellite tracking list
Your tracking list is empty




NASA's NSSDC Master Catalog

Two Line Element Set (TLE):
1 49491U 02032DV  23032.20850827  .00021154  00000-0  51245-2 0  9998
2 49491  98.7435   8.6700 0075424  45.5903 315.1431 14.51255119 98722
Source of the keplerian elements: AFSPC